Location: Little Maitland River
(43.8022°N, 81.1549°W)
Time: 09:19:22
(UTC+00:00)

Tiangong - Pass Details

Date: 16 March 2026
Orbit: 376 x 385 km, 41.5° (Epoch: 20 April)

Event Time Altitude Azimuth Distance (km) Brightness Sun altitude
Exits shadow 10:39:56 17° 252° (WSW) 1,062 -0.6 -10.7°
Maximum altitude 10:42:10 56° 178° (S) 466 -1.8 -10.3°
Drops below altitude 10° 10:45:19 10° 99° (E) 1,414 2.1 -9.8°
Sets 10:47:28 0° 95° (E) 2,297 3.8 -9.4°
